Hourly Weather Roundup
Issued by NWS Central Illinois

Home | Current Version | Previous Version | Text Only | Print | Product List | Glossary On
Versions: 1 2 3 4 5 6 7 8 9 10 11 12 13 14 15 16 17 18 19 20 21 22 23 24 25 26 27 28 29 30 31 32 33 34 35 36 37 38 39 40 41 42 43 44 45 46 47 48 49 50
416
NZUS43 KILX 200310
HWRILX

AREA WEATHER ROUNDUP
NATIONAL WEATHER SERVICE, LINCOLN IL
900 PM CST THU JAN 19 2017


CITY           SKY/WX    TMP DP  RH WIND       PRES   REMARKS
BLOOMINGTON    LGT RAIN  40  39  97 E8        29.72F FOG     WCI  34
CHAMPAIGN      HVY RAIN  43  41  93 E10       29.70F FOG
DANVILLE       LGT RAIN  42  42  98 E8        29.69F
DECATUR        CLOUDY    42  42 100 E9        29.68F FOG
EFFINGHAM      LGT RAIN  47  47 100 E3        29.68F
FLORA          HVY RAIN  50  49  98 E6        29.66F
GALESBURG      CLOUDY    38  38 100 E5        29.70F FOG     WCI  35
JACKSONVILLE   FOG       42  42 100 E8        29.66F VSB 3/4
LACON          DRIZZLE   38  38 100 E7        29.72F WCI  32
LAWRENCEVILLE  RAIN      49  49 100 SE8       29.69F FOG
LITCHFIELD     CLOUDY    43  43 100 E3        29.67S FOG
$$


CITY           SKY/WX    TMP DP  RH WIND       PRES   REMARKS
LINCOLN        DRIZZLE   42  42 100 E7        29.69F
MACOMB         FOG       39  39 100 E5        29.72S VSB 1
MATTOON        RAIN      44  44 100 NE3       29.66F FOG
MT CARMEL AP   LGT RAIN  50  49  96 E6        29.68F
OLNEY-NOBLE AP HVY RAIN  48  48 100 CALM      29.67F
PARIS          DRIZZLE   44  44 100 E8        29.71F
PEORIA         CLOUDY    40  40 100 E12       29.70F FOG     WCI  33
PONTIAC        CLOUDY    40  40 100 E13       29.75S FOG     WCI  32
RANTOUL        RAIN      44  43  98 E5        29.71F
SPRINGFIELD    CLOUDY    44  42  93 E6        29.69F FOG
TAYLORVILLE    CLOUDY    42  42  99 E5        29.67F FOG
$$

...REGIONAL REPORTS...


CITY           SKY/WX    TMP DP  RH WIND       PRES   REMARKS
CHICAGO O`HARE LGT RAIN  38  37  97 E7        29.79F FOG     WCI  33
KANKAKEE       RAIN      39  38  97 E5        29.77F
MOLINE         CLOUDY    38  36  92 E8        29.72F FOG     WCI  32
MOUNT STERLING FOG       41  41 100 E6        29.66F VSB 1/4
MOUNT VERNON   LGT RAIN  48  47  96 CALM      29.65F FOG
PITTSFIELD     FOG       44  44 100 NE5       29.67F VSB 1/4
QUINCY         FOG       42  42 100 E5        29.66F VSB 1/4
ROCKFORD       LGT RAIN  39  37  92 E3        29.79F FOG
$$


CITY           SKY/WX    TMP DP  RH WIND       PRES   REMARKS
BURLINGTON     FOG       40  40 100 E7        29.68F VSB 3/4
CEDAR RAPIDS   CLOUDY    36  36 100 E7        29.69F FOG     WCI  30
DES MOINES     DRZL/FOG  38  37  97 CALM      29.69S VSB 1/2
KIRKSVILLE     FOG       42  42 100 E5        29.66F VSB 1/4
OTTUMWA        FOG       38  38 100 E7        29.67F VSB 1/4 WCI  33
ST LOUIS       FOG       48  46  93 S7        29.68R VSB 1/4
$$


CITY           SKY/WX    TMP DP  RH WIND       PRES   REMARKS
TERRE HAUTE    LGT RAIN  45  43  93 SE9       29.71F
EVANSVILLE     LGT RAIN  53  51  93 SE5       29.69F VSB 1
INDIANAPOLIS   LGT RAIN  44  42  93 E12       29.75F FOG
LAFAYETTE      LGT RAIN  42  41  96 E12       29.74F FOG
MADISON        CLOUDY    35  34  96 E3        29.80S FOG
MILWAUKEE      LGT RAIN  38  36  92 SE6       29.82F VSB 1/4 WCI  33
$$






USA.gov is the U.S. government's official web portal to all federal, state and local government web resources and services.